[[{"header":{"parameterUnit":"m.s-1","parameterCategory":1,"la1":30.2991,"la2":30.254,"lo1":-89.0895,"lo2":-89.0444,"dy":0.0017,"dx":0.0017,"nx":28,"ny":28,"refTime":"2025-05-15T03:00:00:Z","depth":0,"parameterNumber":2,"parameterNumberName":"U-component_of_WINDS"},"data":[0,0,0,0,0,0,0,0,0,0,0,0,0,0,0,0,0,0,0,0,0,0,0,0,0,0,0,0,0,0,0,0,0,0,0,0,0,0,0,0,0,0,0,0,0,0,0,0,0,0,0,0,0,0,0,0,0,0,1.4404,1.4405,0,1.445,1.4451,1.4451,1.4456,1.4455,1.4455,1.4454,1.4499,1.4501,1.4502,0,0,0,0,0,0,0,0,0,0,0,0,0,1.4318,1.4319,1.4404,1.4405,1.4406,1.445,1.4451,1.4452,1.4456,1.4455,1.4454,1.4454,1.4498,1.45,1.4502,0,0,0,0,0,0,0,0,0,0,0,0,0,1.4359,1.432,1.4404,1.4413,1.4414,1.445,1.4451,1.4452,1.4456,1.4455,1.4454,1.4454,1.4498,1.45,1.4503,1.4532,0,0,1.451,1.4511,0,0,0,0,0,0,0,0,1.4356,1.4362,1.4411,1.4412,1.4414,1.4447,1.4437,1.4479,1.4456,1.444,1.4454,1.4453,1.4482,1.4486,1.4496,1.4534,1.4536,1.451,1.4512,1.4513,1.4514,0,0,0,0,0,0,0,1.4354,1.436,1.4422,1.4412,1.4414,1.4414,1.4419,1.4445,1.4464,1.4441,1.4442,1.4447,1.4483,1.4493,1.4497,1.4537,1.451,1.4512,1.4514,1.4515,1.4602,1.4603,0,0,0,0,0,0,1.4349,1.4357,1.4421,1.4424,1.4383,1.4416,1.4422,1.4437,1.4464,1.4468,1.4448,1.4447,1.449,1.4494,1.4498,1.4535,1.4513,1.4515,1.4517,1.4601,1.4602,1.4603,0,0,0,0,0,0,1.4348,1.4355,1.4419,1.4391,1.4399,1.4418,1.4435,1.4438,1.4449,1.4469,1.4472,1.4455,1.4489,1.4495,1.4524,1.4536,1.4516,1.4519,1.46,1.4601,1.4603,1.4608,0,0,0,0,0,0,1.4345,1.4354,1.4366,1.4391,1.4401,1.4444,1.4436,1.4439,1.4453,1.4453,1.4477,1.448,1.4489,1.452,1.4526,1.4539,1.452,1.4599,1.4601,1.4602,1.4606,1.4609,1.4611,0,0,0,0,0,1.4342,1.4365,1.4367,1.4374,1.4416,1.4445,1.445,1.4461,1.4454,1.4466,1.4479,1.448,1.4534,1.4523,1.453,1.4544,1.4598,1.46,1.4602,1.4605,1.4608,1.4611,0,0,0,0,0,0,1.434,1.4369,1.4371,1.4403,1.4422,1.4446,1.4461,1.4464,1.4484,1.4483,1.4494,1.4499,1.4528,1.4539,1.4526,1.4574,1.4565,1.4569,1.4566,1.4569,1.4571,1.4567,1.4522,0,0,0,0,0,1.4344,1.4366,1.4389,1.4416,1.4425,1.4441,1.4454,1.4461,1.448,1.4488,1.4503,1.4521,1.4543,1.4556,1.4577,1.4608,1.4613,1.4621,1.4624,1.4625,1.4628,1.4645,1.4649,1.4609,1.4609,1.4609,0,0,1.4351,1.4369,1.4382,1.4416,1.4431,1.4453,1.4448,1.4471,1.4487,1.4491,1.452,1.4531,1.4553,1.4583,1.4597,1.4593,1.464,1.4628,1.4629,1.4631,1.4647,1.4651,1.4654,1.461,1.461,1.461,0,0,1.4375,1.4392,1.4415,1.4431,1.4455,1.4466,1.4471,1.4495,1.4503,1.4532,1.4536,1.4555,1.4591,1.4606,1.4619,1.4649,1.465,1.4656,1.4667,1.4684,1.4687,1.469,1.4701,1.4704,1.4658,1.4658,1.4658,0,1.4381,1.4415,1.4427,1.445,1.4465,1.447,1.4494,1.4508,1.4537,1.4546,1.4542,1.4588,1.4603,1.4637,1.4644,1.4654,1.4661,1.4653,1.4686,1.4689,1.4692,1.4702,1.4706,1.4659,1.4659,1.4659,1.4659,0,1.4421,1.4444,1.446,1.4489,1.4505,1.4528,1.4543,1.4558,1.4563,1.4574,1.4604,1.4622,1.4646,1.4655,1.466,1.4689,1.4686,1.4684,1.4675,1.4696,1.4705,1.4709,1.466,1.4659,1.4659,1.4659,0,0,1.4444,1.448,1.4485,1.4499,1.4525,1.4543,1.4567,1.4592,1.4604,1.4624,1.4643,1.4675,1.4673,1.4687,1.4694,1.4708,1.4731,1.4704,1.4705,1.4708,1.4764,1.4766,1.477,1.4732,1.4733,1.4734,1.4763,0,1.4471,1.4514,1.4525,1.4561,1.4583,1.4589,1.461,1.4628,1.4639,1.4659,1.4671,1.4693,1.4689,1.4697,1.4712,1.4725,1.4743,1.4723,1.475,1.4751,1.4744,1.4775,1.4776,1.4802,1.4766,1.4767,1.4768,0,1.4507,1.4529,1.4568,1.4592,1.4601,1.462,1.4644,1.4662,1.4683,1.469,1.4707,1.4712,1.4736,1.4727,1.4761,1.4747,1.4759,1.4767,1.4768,1.4771,1.476,1.4778,1.4811,1.4815,1.4774,1.4773,1.4773,0,1.452,1.4559,1.4587,1.4598,1.4627,1.464,1.4652,1.4673,1.4687,1.4708,1.4717,1.474,1.4752,1.477,1.4781,1.4774,1.4814,1.4805,1.482,1.4819,1.4827,1.4826,1.4862,1.4836,1.4836,1.4836,1.4835,0,1.4548,1.4571,1.4593,1.461,1.4636,1.4649,1.4674,1.4687,1.4705,1.4725,1.4731,1.4749,1.4764,1.4783,1.4792,1.4818,1.4824,1.483,1.4832,1.4829,1.4828,1.4836,1.4834,1.4837,1.4836,1.4836,1.4836,0,1.4566,1.4582,1.4612,1.4638,1.4645,1.4663,1.4685,1.4701,1.4713,1.4738,1.4744,1.4762,1.4786,1.48,1.4829,1.4835,1.4864,1.4866,1.4857,1.4858,1.4871,1.487,1.4913,1.4919,1.4889,1.4889,1.489,0,1.4582,1.4601,1.4629,1.4643,1.4656,1.4678,1.4693,1.4707,1.4722,1.4747,1.4761,1.4785,1.4805,1.4842,1.4858,1.488,1.4882,1.4896,1.4885,1.4882,1.4882,1.488,1.4882,1.4897,1.4898,1.4898,1.4898,0,1.461,1.4617,1.4639,1.4663,1.4681,1.4701,1.4721,1.4731,1.4748,1.4765,1.479,1.4805,1.4836,1.486,1.4884,1.4896,1.49,1.4901,1.4906,1.4902,1.4897,1.49,1.4861,1.49,1.49,1.49,1.4899,1.4899,1.4627,1.4644,1.4666,1.469,1.4707,1.4725,1.4742,1.4757,1.4778,1.4804,1.4811,1.4837,1.4858,1.4891,1.4904,1.4924,1.4921,1.4928,1.4929,1.493,1.4931,1.4894,1.4928,1.4928,1.4928,1.4928,1.4928,0,1.4654,1.467,1.4692,1.472,1.4738,1.4741,1.4763,1.4779,1.4802,1.4821,1.4841,1.487,1.4893,1.4911,1.4935,1.4947,1.4949,1.4953,1.4952,1.4955,1.4932,1.4925,1.4951,1.4951,1.4951,1.4951,1.4951,1.4951,1.4671,1.4699,1.4709,1.4745,1.476,1.4786,1.4798,1.4815,1.4831,1.4862,1.4882,1.4894,1.4913,1.4938,1.496,1.4964,1.4973,1.4976,1.4981,1.4959,1.4956,1.4954,1.4948,1.4978,1.4978,1.5002,1.5002,1.5002]},{"header":{"parameterUnit":"m.s-1","parameterCategory":1,"la1":30.2991,"la2":30.254,"lo1":-89.0895,"lo2":-89.0444,"dy":0.0017,"dx":0.0017,"nx":28,"ny":28,"refTime":"2025-05-15T03:00:00:Z","depth":0,"parameterNumber":3,"parameterNumberName":"V-component_of_WINDS"},"data":[0,0,0,0,0,0,0,0,0,0,0,0,0,0,0,0,0,0,0,0,0,0,0,0,0,0,0,0,0,0,0,0,0,0,0,0,0,0,0,0,0,0,0,0,0,0,0,0,0,0,0,0,0,0,0,0,0,0,5.3023,5.3023,0,5.3081,5.3081,5.3082,5.3049,5.3047,5.3046,5.3044,5.3099,5.3102,5.3105,0,0,0,0,0,0,0,0,0,0,0,0,0,5.288,5.2883,5.3022,5.3023,5.3024,5.308,5.3081,5.3082,5.3049,5.3047,5.3045,5.3043,5.3098,5.3102,5.3105,0,0,0,0,0,0,0,0,0,0,0,0,0,5.294,5.2884,5.3022,5.3014,5.3014,5.308,5.3081,5.3082,5.305,5.3047,5.3045,5.3042,5.3097,5.3102,5.3106,5.3182,0,0,5.312,5.3121,0,0,0,0,0,0,0,0,5.2937,5.2946,5.3015,5.3015,5.3015,5.3055,5.3051,5.3115,5.305,5.3036,5.3044,5.3041,5.3086,5.3091,5.3108,5.3184,5.3187,5.312,5.3123,5.3125,5.3126,0,0,0,0,0,0,0,5.2933,5.2943,5.3045,5.3016,5.3016,5.3007,5.3013,5.3063,5.3074,5.3037,5.3035,5.3042,5.3086,5.3103,5.3109,5.3187,5.312,5.3124,5.3126,5.3128,5.3331,5.3333,0,0,0,0,0,0,5.293,5.294,5.3043,5.3047,5.2969,5.3012,5.3018,5.3045,5.3073,5.3075,5.3044,5.3041,5.3097,5.3103,5.311,5.3202,5.3124,5.3129,5.3131,5.3328,5.3331,5.3334,0,0,0,0,0,0,5.2927,5.2939,5.3041,5.2993,5.3005,5.3017,5.3047,5.3047,5.3064,5.3079,5.308,5.3061,5.3095,5.3104,5.3165,5.3203,5.3131,5.3135,5.3325,5.3329,5.3333,5.3385,0,0,0,0,0,0,5.2923,5.2938,5.2968,5.2994,5.3008,5.3096,5.3049,5.305,5.3073,5.3068,5.3094,5.3096,5.3094,5.3158,5.3169,5.3208,5.3138,5.3321,5.3327,5.3331,5.338,5.3391,5.34,0,0,0,0,0,5.2918,5.2979,5.297,5.2982,5.3045,5.3098,5.3106,5.3103,5.3076,5.3105,5.3115,5.3095,5.3198,5.3165,5.3177,5.3218,5.3319,5.3325,5.3331,5.3376,5.3389,5.3399,0,0,0,0,0,0,5.2955,5.2982,5.2972,5.3044,5.3069,5.3092,5.3129,5.3117,5.3149,5.3143,5.3137,5.3144,5.3207,5.3218,5.3181,5.3293,5.3254,5.3263,5.3284,5.3296,5.3306,5.3302,5.3142,0,0,0,0,0,5.2972,5.3014,5.3035,5.3096,5.3109,5.3117,5.314,5.3136,5.3162,5.3172,5.3185,5.321,5.3248,5.3272,5.3308,5.3382,5.3387,5.3416,5.3426,5.3433,5.3441,5.3483,5.3496,5.3354,5.3354,5.3354,0,0,5.3007,5.3027,5.3053,5.3104,5.3123,5.3166,5.3126,5.3173,5.3204,5.3178,5.3237,5.3248,5.3275,5.3343,5.3374,5.3354,5.3482,5.3441,5.3448,5.3451,5.349,5.3504,5.3516,5.3358,5.3357,5.3357,0,0,5.3092,5.3111,5.3165,5.3186,5.3216,5.3222,5.3235,5.3261,5.3268,5.3327,5.3309,5.3346,5.341,5.3431,5.345,5.3545,5.3529,5.3557,5.3608,5.3648,5.3659,5.3669,5.3704,5.3717,5.3564,5.3564,5.3564,0,5.3131,5.3196,5.3194,5.3243,5.3266,5.3247,5.3301,5.3321,5.336,5.3376,5.3354,5.3437,5.3453,5.3527,5.3551,5.3566,5.3581,5.3554,5.3658,5.3668,5.3677,5.371,5.3723,5.3568,5.3567,5.3567,5.3567,0,5.3243,5.3288,5.3328,5.3369,5.3397,5.3448,5.3453,5.3481,5.3475,5.3483,5.3544,5.3564,5.3603,5.362,5.3614,5.3694,5.3681,5.3659,5.3619,5.3694,5.3725,5.3738,5.3572,5.3571,5.357,5.3569,0,0,5.3352,5.3394,5.3408,5.3428,5.3461,5.3495,5.3546,5.3587,5.3611,5.3639,5.3682,5.3738,5.3718,5.374,5.3736,5.3771,5.3847,5.3745,5.3745,5.3764,5.3937,5.3954,5.3969,5.3837,5.3839,5.3841,5.3935,0,5.344,5.3531,5.3531,5.3614,5.3656,5.3639,5.3683,5.3708,5.3717,5.3753,5.3762,5.3803,5.3773,5.3786,5.382,5.3831,5.3882,5.3824,5.3876,5.3878,5.387,5.3985,5.4003,5.4091,5.3947,5.3949,5.3951,0,5.3555,5.359,5.3678,5.3706,5.3724,5.3764,5.3802,5.3837,5.3865,5.3869,5.3894,5.3886,5.3937,5.3896,5.3966,5.3927,5.3948,5.3957,5.396,5.3965,5.3919,5.3994,5.4119,5.4132,5.397,5.3968,5.3967,0,5.3627,5.3696,5.3758,5.3774,5.3809,5.3838,5.3853,5.3879,5.3904,5.3937,5.3953,5.3991,5.4012,5.4042,5.4043,5.4013,5.4115,5.4074,5.4119,5.412,5.4141,5.414,5.4272,5.4155,5.4154,5.4154,5.4154,0,5.3726,5.3781,5.3791,5.3829,5.389,5.389,5.3949,5.3962,5.3986,5.4025,5.4012,5.4049,5.4049,5.4087,5.4089,5.4148,5.4157,5.4161,5.4161,5.4163,5.4162,5.4177,5.4171,5.4158,5.4157,5.4156,5.4156,0,5.3817,5.3826,5.3893,5.3921,5.3929,5.3973,5.3997,5.4033,5.4041,5.4092,5.4103,5.4116,5.416,5.4165,5.4216,5.4217,5.4288,5.4281,5.428,5.4279,5.4325,5.432,5.4471,5.4491,5.436,5.4361,5.4362,0,5.388,5.3922,5.3955,5.3982,5.4,5.4043,5.4069,5.4071,5.4098,5.4135,5.4166,5.421,5.4245,5.4316,5.4329,5.4369,5.4363,5.4413,5.4368,5.4369,5.4364,5.4362,5.4367,5.4421,5.4423,5.4424,5.4425,0,5.399,5.3993,5.4032,5.4074,5.4107,5.4139,5.4169,5.4191,5.4196,5.4228,5.4275,5.4302,5.4355,5.4399,5.4438,5.4453,5.444,5.4439,5.4452,5.4454,5.4452,5.4455,5.4304,5.4435,5.4434,5.4433,5.4433,5.4432,5.4069,5.4107,5.4137,5.4182,5.4205,5.4234,5.427,5.4284,5.4323,5.4368,5.4366,5.4417,5.4445,5.4497,5.4515,5.4555,5.4538,5.4556,5.4561,5.4565,5.4571,5.4446,5.4561,5.4561,5.4561,5.4561,5.456,0,5.418,5.4199,5.4241,5.4285,5.432,5.4307,5.434,5.437,5.4416,5.4443,5.4479,5.4533,5.4575,5.4593,5.4634,5.4663,5.4658,5.4674,5.4672,5.4676,5.4583,5.4568,5.4677,5.4677,5.4677,5.4677,5.4677,5.4677,5.4242,5.4305,5.4312,5.4386,5.4405,5.4456,5.4477,5.4503,5.4526,5.4587,5.4623,5.4635,5.4659,5.4702,5.4741,5.4745,5.4761,5.4779,5.4781,5.4694,5.4682,5.4671,5.4657,5.4783,5.4783,5.4871,5.4871,5.4872]}]]